This is the latest recevied weather packets stored in our database for station/object KB3HLL. If no packets are shown the sender has not sent any weather packets the latest 10 day(s).
| Time | Temp. | Humidity | Pressure | Rain* | Wind** | Luminosity | Snow |
|---|---|---|---|---|---|---|---|
| 1777909879 | 14.44° C | 58% | 1012.9 hPa | 0 mm | - | 367 W/m² | - |
| 1777909578 | 15° C | 58% | 1013 hPa | 0 mm | - | 235 W/m² | - |
| 1777909278 | 14.44° C | 58% | 1013 hPa | 0 mm | - | 488 W/m² | - |
| 1777908978 | 13.89° C | 59% | 1013 hPa | 0 mm | - | 990 W/m² | - |
| 1777908679 | 13.33° C | 60% | 1013.3 hPa | 0 mm | - | 1020 W/m² | - |
| 1777908378 | 13.33° C | 61% | 1013.1 hPa | 0 mm | - | 505 W/m² | - |
| 1777908080 | 13.33° C | 60% | 1013.1 hPa | 0 mm | - | 945 W/m² | - |
| 1777907780 | 13.33° C | 61% | 1013.3 hPa | 0 mm | - | 355 W/m² | - |
| 1777907478 | 13.33° C | 60% | 1013.3 hPa | 0 mm | - | 866 W/m² | - |
| 1777907177 | 12.78° C | 62% | 1013.4 hPa | 0 mm | - | 641 W/m² | - |
| 1777906879 | 12.78° C | 62% | 1013.4 hPa | 0 mm | - | 713 W/m² | - |
| 1777906577 | 12.22° C | 62% | 1013.3 hPa | 0 mm | - | 153 W/m² | - |
| 1777906277 | 12.22° C | 61% | 1013.4 hPa | 0 mm | - | 512 W/m² | - |
| 1777905982 | 11.67° C | 64% | 1013.4 hPa | 0 mm | - | 611 W/m² | - |
| 1777905678 | 11.67° C | 63% | 1013.4 hPa | 0 mm | - | 774 W/m² | - |
| 1777905377 | 11.67° C | 62% | 1013.4 hPa | 0 mm | - | 757 W/m² | - |
| 1777905079 | 11.67° C | 64% | 1013.3 hPa | 0 mm | - | 751 W/m² | - |
| 1777904779 | 11.67° C | 62% | 1013.3 hPa | 0 mm | - | 734 W/m² | - |
| 1777904478 | 11.67° C | 63% | 1013.4 hPa | 0 mm | - | 716 W/m² | - |
| 1777904180 | 11.67° C | 61% | 1013.4 hPa | 0 mm | - | 710 W/m² | - |
| 1777903880 | 11.11° C | 62% | 1013.4 hPa | 0 mm | - | 702 W/m² | - |
| 1777903578 | 11.11° C | 63% | 1013.4 hPa | 0 mm | - | 674 W/m² | - |
| 1777903280 | 11.11° C | 64% | 1013.4 hPa | 0 mm | - | 696 W/m² | - |
| 1777902981 | 11.11° C | 63% | 1013.4 hPa | 0 mm | - | 641 W/m² | - |
| 1777902680 | 10.56° C | 63% | 1013.4 hPa | 0 mm | - | 633 W/m² | - |
* Rain latest hour (hover to see other rain measurements)
** Current wind speed in m/s (hover to see current wind gust speed)